SES-15 (42709 NORAD) Tracking and Keplerian Element Data

This shows tracking and keplerian element data for the satellite.

Feedback or suggestion? Click here.




ElementValue
Catalog42709
NameSES-15
Epoch Orbit635
Epoch Day317.21352523
Epoch Year2018
RAAN305.2635
Inclination0.0144
Eccentricity9.66E-05
Argument of Perigee263.2829
Mean Anonmoly151.4758
Mean Motion1.00271306
Decay Rate5.9E-07
L11 42709U 17026A 18317.21352523 .00000059 00000-0 00000-0 0 9995
L22 42709 0.0144 305.2635 0000966 263.2829 151.4758 1.00271306 6355

Live tracking and technical data element details for SES-15 (NORAD 42709). SES-15 can be tracked NOW for your location showing map with azimuth and elevation plus other details from your city location.

Track the satellite on the map from your city or location and see movement details for azimuth, elevation, latitude, longitude, range, height, and movement on the map or in text.







IsCatalogInMostPopularTable: catalog: 42709, numindb: 142
Update: records affected: 1



GetName: 42709 SES-15

Hit Count: updated at: Wed, 14 Nov 2018 10:50:54 GMT